Location: Cerbedi�res
(48.2182°N, 1.4849°W)
Time: 21:29:27
(UTC+00:00)

Lacrosse 4 Rocket - Pass Details

Date: 03 March 2021
Orbit: 537 x 620 km, 68.0° (Epoch: 14 April)

Event Time Altitude Azimuth Distance (km) Brightness Sun altitude
Rises 20:47:57 0° 222° (SW) 2,829 5.1 -29.2°
Reaches altitude 10° 20:50:12 10° 227° (SW) 1,943 4.3 -29.5°
Enters shadow 20:51:00 15° 229° (SW) 1,641 3.9 -29.6°
